Weather Service Report


915 
ASHW40 PHFO 100243
RWRHI 

WEATHER ROUNDUP FOR HAWAII
NATIONAL WEATHER SERVICE HONOLULU HI
400 PM HST TUE FEB 09 2016

THIS IS AN AUTOMATED REPORT THAT HAS NOT BEEN QUALITY CONTROLLED.

NOTE..."FAIR" INDICATES FEW OR NO CLOUDS BELOW 12,000 FEET WITH NO
SIGNIFICANT WEATHER AND/OR OBSTRUCTIONS TO VISIBILITY.

* - THESE SITES REPORT LIMITED FIELDS

HIZ001>004-100300-
KAUAI-NIIHAU-
  
CITY           SKY/WX    TMP DP  RH WIND       PRES   REMARKS
LIHUE APT      MOSUNNY   76  55  48 S13       30.00S                  
PORT ALLEN*      N/A     79 N/A N/A SW7         N/A                   
POIPU*           N/A     77 N/A N/A S7          N/A                   
PRINCEVILLE*     N/A     75 N/A N/A N3          N/A                   
KOKOLE POINT*  NOT AVBL                                               
MOLOAA DAIRY*    N/A     75  57  53 E2G13       N/A                   
WAIMEA HTS*      N/A     79  54  41 SW8         N/A                   
PUU OPAE*        N/A     70  52  52 W7          N/A                   
PUU LUA*       NOT AVBL                                               
MAKAHA RIDGE*    N/A     70  54  56 W3G12       N/A                   
$$

HIZ005>011-100300-
OAHU-
  
CITY           SKY/WX    TMP DP  RH WIND       PRES   REMARKS
HONOLULU       MOSUNNY   77  59  53 SW10      29.99R                  
KALAELOA       SUNNY     78  56  46 NW9       30.00S                  
KANEOHE MCB    SUNNY     76  58  53 N7        29.97R                  
WHEELER FIELD  FAIR      74  59  59 N10       29.98S                  
BELLOWS*         N/A    N/A N/A N/A E5          N/A                   
KAHUKU*          N/A    N/A N/A N/A VRB3        N/A                   
WHEELER*         N/A    N/A N/A N/A NW7G14      N/A                   
WAIANAE HARBOR   N/A    N/A N/A N/A NW13        N/A                   
DILLINGHAM*      N/A     75  52  43 MISG        N/A                   
KAHUKU TRN*      N/A     73  55  53 NW3G9       N/A                   
KAWAILOA*        N/A     77  55  47 W6G12       N/A                   
KII*             N/A     73  57  56 N6          N/A                   
MAKUA RANGE*     N/A     79  57  47 W3G9        N/A                   
OAHU FOREST NW   N/A     63  55  77 CALM        N/A                   
SCHOFIELD BRK*   N/A     70  55  60 MISG        N/A                   
SCHOFIELD S*   NOT AVBL                                               
WAIANAE VLY*     N/A     79  54  41 SE3G12      N/A                   
KUAOKALA*        N/A     72  55  56 NW7         N/A                   
HONOULIUULI*   NOT AVBL                                               
MOKUOLOE IS*   NOT AVBL                                               
PALEHUA*         N/A     70  57  64 W3G10       N/A                   
WAIAWA PHB*    NOT AVBL                                               
$$

HIZ012>013-100300-
MOLOKAI-
  
CITY           SKY/WX    TMP DP  RH WIND       PRES   REMARKS
MOLOKAI AIRPT  SUNNY     77  57  50 N7        30.00S                  
KALAUPAPA      NOT AVBL                                               
MAKAPULAPAI*     N/A     77  57  50 NE6         N/A                   
MOLOKAI 1*       N/A     66  54  63 SE2         N/A                   
PUU ALII*        N/A     65  56  73 S2          N/A                   
$$

HIZ016-100300-
KAHOOLAWE-
  
CITY           SKY/WX    TMP DP  RH WIND       PRES   REMARKS
KAHOOLAWE*       N/A     70 N/A N/A SE1         N/A                   
HAKIOAWA*        N/A     70  60  70 MISG      30.41S                  
HONOKANAIA*      N/A     81  60  48 E8G15     29.93F                  
KANELOA*         N/A     75  61  60 SE9G16    30.06F                  
KEALIALALO*    NOT AVBL                                               
LUA MAKIKA*    NOT AVBL                                               
$$

HIZ014>015-100300-
LANAI-
  
CITY           SKY/WX    TMP DP  RH WIND       PRES   REMARKS
LANAI CITY     FAIR      72  54  53 W12       30.03F                  
LANAI 1*       NOT AVBL                                               
$$

HIZ017>028-100300-
MAUI-
  
CITY           SKY/WX    TMP DP  RH WIND       PRES   REMARKS
KAHULUI        MOSUNNY   78  59  51 NE12      30.00R                  
KAPALUA-W MAUI MOSUNNY   77  57  50 NW6       30.00                   
HANA AIRPORT   NOT AVBL                                               
HANA*            N/A     75 N/A N/A E7G13       N/A                   
HALEAKALA SUMM   N/A     52   5  15 S10         N/A                   
MAALAEA BAY*     N/A     81 N/A N/A W3G10       N/A                   
HALEAKALA*     NOT AVBL                                               
KAUPO GAP*       N/A     61  57  88 SE3G12      N/A                   
KULA 1*          N/A     56  49  79 W3G9        N/A                   
$$

HIZ023>026-100300-
BIG ISLAND OF HAWAII COAST AND LOWER SLOPES-
  
CITY           SKY/WX    TMP DP  RH WIND       PRES   REMARKS
KAILUA KONA    NOT AVBL                                               
HILO           MOSUNNY   80  60  50 NE8       29.98S                  
HONOKAA*         N/A     68 N/A N/A VRB1        N/A                   
KAWAIHAE MWT*    N/A     79 N/A N/A W9          N/A                   
KAWAIHAE*      NOT AVBL                                               
SOUTH POINT*     N/A     73 N/A N/A NE12G18     N/A                   
UPOLU AIRPORT*   N/A    N/A N/A N/A NE12        N/A                   
KAMUELA*       NOT AVBL                                               
HAKALAU*         N/A     62  53  73 S7G13       N/A                   
KALOKO-HONOKO*   N/A     75  59  57 CALM      29.97S                  
PALI 2*          N/A     68  55  64 SE7G15      N/A                   
KEALAKOMO*       N/A     79  61  53 E9          N/A                   
KAUPULEHU*       N/A     72  57  60 N3G12       N/A                   
KAPAPALA*        N/A     74  58  56 E3G9        N/A                   
LOWER KAHUKU*    N/A     68 -36   1 SE3G10      N/A                   
PUHE CS*         N/A     79  55  44 W7G13       N/A                   
PUHO CS*         N/A     77  60  54 W3          N/A                   
PTA KEAMUKU*     N/A     63  52  67 CALM        N/A                   
WAIKOLOA*        N/A     73  54  49 W7G14       N/A                   
$$

HIZ027>028-100300-
BIG ISLAND OF HAWAII INTERIOR AND SUMMMITS-
  
CITY           SKY/WX    TMP DP  RH WIND       PRES   REMARKS
BRADSHAW FIELD SUNNY     61  50  66 W8        30.23S                  
MK VISITOR CEN   N/A     55  43  62 SW5         N/A                   
MAUNA KEA*       N/A     43  -8  11 N24         N/A                   
MAUNA LOA*       N/A     48  34  57 MISG        N/A                   
MAUNA LOA 1*   NOT AVBL                                               
PTA KIPUKA*      N/A     70  57  64 N7G14       N/A                   
PTA RANGE 17*    N/A     57  48  72 NW9G17      N/A                   
PTA WEST*        N/A     68  59  73 NW9G18      N/A                   
NENE CABIN*      N/A     63  32  31 SE3G10      N/A                   
AHUMOA*          N/A     51  50  95 NW3         N/A                   
PTA PORTABLE*  NOT AVBL                                               
PUU MALI*        N/A     57  50  77 NW8G14      N/A                   
$$

HIC003-100300-
NORTHWEST ISLANDS-
  
CITY           SKY/WX    TMP DP  RH WIND       PRES   REMARKS
MIDWAY ISLAND  CLOUDY    66  61  82 E8        30.00F                  
MIDWAY NOS*    NOT AVBL                                               
FRENCH FRIGATE NOT AVBL                                               
$$

PHZ110>124-180-100300-
BUOY REPORTS
  
STATION/POSITION TIME  TEMP    WIND        PRES    WAVE   SWELL
                       AIR SEA DIR/SP/G            HT/PER HT/DIR
                 (UTC) (F)     (DEG/KT/KT) (MB)    (FT/S) (FT/D)
BUOY 51001       0200   71 75  230/ 16/ 19 1015.1S
BUOY 51101       0150   70 75  220/ 10/ 12 1015.3R   9/12   8/330
BUOY 51100       NOT AVBL
BUOY 51002       0150   76 78   60/ 14/ 17 1013.5F
BUOY 51003       0150   74 78   40/  6/ 10 1015.2F   8/13   7/330
BUOY 51004       0150   76 78   60/ 10/ 14 1014.0F  10/12  10/340
BARBERS PT BUOY  NOT AVBL
WAIMEA BAY BUOY  0204      78                N/A     7/12   5/320
KAILUA BAY BUOY  0211      78                N/A     6/12   3
LANAI BUOY       NOT AVBL
BARBERS PT 2     0203      78                N/A     5/13   3/310
PAUWELA MAUI     0207      77                N/A     9/11   7/340
HILO             NOT AVBL
KANEOHE BAY BUOY 0206      77                N/A     6/11   3/350
HANALEI KAUAI    0201      78                N/A     8/10   5/340
KAHULUI HARBOR   0200   74 77   30/  8/ 10 1015.1F
HONOLULU HARBOR  0200   74 77  220/  5/  9 1016.0S
KILO NALU        NOT AVBL
HILO HARBOR      0200   75 76   10/  5/ 11 1014.7S
MOKUOLOE         0100   73 76  360/  6/  8 1015.4F
NAWILIWILI       0200   73 78  180/  9/ 12 1015.3F
WHOTS BUOY       NOT AVBL
BUOY 51028       NOT AVBL
$$

......................KEY........................................
  SKY/WX - SKY CONDITIONS/PRESENT WEATHER
  TMP    - TEMPERATURE IN FAHRENHEIT
  DWPT   - DEWPOINT IN FAHRENHEIT
  RH     - RELATIVE HUMIDITY IN PERCENT
  WIND   - DIRECTION AND SPEED /MPH FOR ISLANDS...KTS FOR BUOYS/
  PRES   - MEAN SEA LEVEL PRESSURE IN INCHES OF HG
  VSB    - VISIBILITY IN MILES
  HX     - HEAT INDEX
  WCI    - WIND CHILL INDEX
  VRB    - VARIABLE WIND DIRECTION
  N/A    - NOT AVAILABLE
  

Return to Home page


Western Regional Climate Center, wrcc@dri.edu